Tracking 33744 objects as of 13-Apr-2026
HD Live streaming from Space Station
objects crossing your sky now

OBJECT C

Track OBJECT C now!
10-day predictions


NORAD ID: 67676
Int'l Code: 2026-023C
Perigee: 488.5 km
Apogee: 513.8 km
Inclination: 96.6 °
Period: 94.5 minutes
Semi major axis: 6872 km
RCS: Unknown
Launch date: February 5, 2026
Source: Commonwealth of Independent States (former USSR) (CIS)
Launch site: PLESETSK MISSILE AND SPACE COMPLEX (PKMTR)
Your satellite tracking list
Your tracking list is empty




NASA's NSSDC Master Catalog

Two Line Element Set (TLE):
1 67676U 26023C   26102.93873917  .00007430  00000-0  30840-3 0  9995
2 67676  96.6338 171.9728 0018421   7.5513 352.6000 15.23929294 10239
Source of the keplerian elements: AFSPC